Regional Weather Roundup
Issued by NWS

Home | Current Version | Previous Version | Graphics & Text | Print | Product List | Glossary Off
Versions: 1 2 3 4 5 6 7 8 9 10 11 12 13 14 15 16 17 18 19 20 21 22 23 24 25 26 27 28 29 30 31 32 33 34 35 36 37 38 39 40 41 42 43 44 45 46 47 48 49 50

000
ASUS45 KABQ 042310
RWRNM
NEW MEXICO REGIONAL WEATHER ROUNDUP
NATIONAL WEATHER SERVICE ALBUQUERQUE NM
500 PM MDT FRI SEP 04 2015

NOTE: "FAIR" MEANS FEW OR NO CLOUDS BELOW 12,000 FEET AGL WITH NO
       SIGNIFICANT WEATHER OR OBSTRUCTIONS TO VISION.

      THIS PRODUCT IS RELEASED AS TWO VERSIONS.  ONE VERSION NEAR
      THE TOP OF THE HOUR CONTAINING PRELIMINARY DATA FROM ALBUQUERQUE
      AND OTHER STATIONS.  A FINAL VERSION WITH ADDITIONAL DATA IS
      ISSUED ABOUT 10 MINUTES AFTER THE HOUR.

NMZ501-503-504-510>518-050000-
NORTHWEST PLATEAU/NORTHCENTRAL MOUNTAINS

CITY           SKY/WX    TMP DP  RH WIND       PRES   REMARKS
FARMINGTON     MOSUNNY   72  51  47 SE14      30.04S
LOS ALAMOS     LGT RAIN  58  58  97 SW8       30.24F
SANTA FE       LGT RAIN  62  56  80 W5        30.21R
TAOS           CLOUDY    61  46  59 SW15      30.26R
ANGEL FIRE     LGT RAIN  55  51  86 W10       30.31R

$$
NMZ402-403-502-505>509-050000-
WESTCENTRAL MOUNTAINS/SOUTHWEST MOUNTAINS

CITY           SKY/WX    TMP DP  RH WIND       PRES   REMARKS
GALLUP         CLOUDY    63  56  78 NW3       30.13R
GRANTS         PTSUNNY   71  53  52 SE15G22   30.15S
SILVER CITY    LGT RAIN  66  55  68 W9        30.16R

$$
NMZ407-409-411-412-050000-
SOUTHERN DESERTS

CITY           SKY/WX    TMP DP  RH WIND       PRES   REMARKS
LORDSBURG      DRIZZLE   72  59  64 NW3       30.06S
DEMING         PTSUNNY   79  55  43 W13       30.04S
LAS CRUCES     FAIR      86  50  28 NW8       30.03F
HOLLOMAN AFB   CLOUDY    86  49  27 VRB6      29.99S
ALAMOGORDO     CLOUDY    84  48  28 CALM      30.01S
T OR C         CLOUDY    75  58  55 E3        30.07S

$$
NMZ519>523-050000-
CENTRAL VALLEYS/CENTRAL HIGHLANDS

CITY           SKY/WX    TMP DP  RH WIND       PRES   REMARKS
ALBUQUERQUE    CLOUDY    69  58  67 S5        30.13F
DOUBLE EAGLE   CLOUDY    66  61  82 SE8       30.16F
MORIARTY ARPT  CLOUDY    67  52  57 CALM      30.20R
CLINES CORNERS LGT RAIN  63  52  67 W6        30.22F
BELEN          DRIZZLE   69  59  71 E5        30.12R
SOCORRO        CLOUDY    72  57  59 CALM      30.08F

$$
NMZ524>526-539-540-050000-
SOUTHCENTRAL MOUNTAINS

CITY           SKY/WX    TMP DP  RH WIND       PRES   REMARKS
RUIDOSO        CLOUDY    66  54  63 SW5       30.22F

$$
NMZ527>531-050000-
NORTHEAST HIGHLANDS/NORTHEAST PLAINS

CITY           SKY/WX    TMP DP  RH WIND       PRES   REMARKS
LAS VEGAS      LGT RAIN  69  48  47 SW17      30.20R
RATON          CLOUDY    78  44  29 S21G31    30.08R
CLAYTON        PTSUNNY   87  47  24 SW18      30.01F

$$
NMZ532>537-050000-
EASTCENTRAL PLAINS

CITY           SKY/WX    TMP DP  RH WIND       PRES   REMARKS
TUCUMCARI      PTSUNNY   90  47  22 W10       29.96S
CANNON AFB     PTSUNNY   87  52  30 S3        30.00S
CLOVIS AIRPORT PTSUNNY   88  52  29 SE5       30.01S

$$
NMZ028-029-538-050000-
SOUTHEAST PLAINS

CITY           SKY/WX    TMP DP  RH WIND       PRES   REMARKS
ROSWELL        CLOUDY    93  44  18 S13       29.93F
ARTESIA        CLOUDY    93  48  21 SE13      29.93S
CARLSBAD       MOSUNNY   96  46  18 SE13      29.90S
HOBBS          MOSUNNY   91  48  22 SE7G17    29.97F


$$



USA.gov is the U.S. government's official web portal to all federal, state and local government web resources and services.